Time,TemperatureF,DewpointF,PressureIn,WindDirection,WindDirectionDegrees,WindSpeedMPH,WindSpeedGustMPH,Humidity,HourlyPrecipIn,Conditions,Clouds,dailyrainin,SoftwareType,DateUTC
2013-02-18 00:00:00,19.9,15.6,30.32,NW,322,0.0,0.0,83,0.00,,,0.00,Wunderground v.1.15,2013-02-18 05:00:00,
2013-02-18 00:05:00,21.1,17.6,30.32,NNE,16,0.0,0.0,86,0.00,,,0.00,Wunderground v.1.15,2013-02-18 05:05:00,
2013-02-18 00:10:00,21.0,17.5,30.32,NNE,16,0.0,0.0,86,0.00,,,0.00,Wunderground v.1.15,2013-02-18 05:10:00,
2013-02-18 00:15:00,20.6,17.1,30.32,NNE,16,0.0,0.0,86,0.00,,,0.00,Wunderground v.1.15,2013-02-18 05:15:00,
2013-02-18 00:20:00,20.3,17.0,30.33,NNE,16,0.0,0.0,87,0.00,,,0.00,Wunderground v.1.15,2013-02-18 05:20:00,
2013-02-18 00:25:00,20.3,17.0,30.33,NNE,16,0.0,0.0,87,0.00,,,0.00,Wunderground v.1.15,2013-02-18 05:25:00,
2013-02-18 00:30:00,20.3,17.3,30.33,NNE,16,0.0,0.0,88,0.00,,,0.00,Wunderground v.1.15,2013-02-18 05:30:00,
2013-02-18 00:35:00,20.5,17.5,30.33,NNE,16,0.0,0.0,88,0.00,,,0.00,Wunderground v.1.15,2013-02-18 05:35:00,
2013-02-18 00:40:00,20.4,17.1,30.33,NNE,16,0.0,0.0,87,0.00,,,0.00,Wunderground v.1.15,2013-02-18 05:40:00,
2013-02-18 00:50:00,20.2,17.2,30.33,NNE,16,0.0,0.0,88,0.00,,,0.00,Wunderground v.1.15,2013-02-18 05:50:00,
2013-02-18 00:55:00,20.4,17.7,30.33,NNE,16,0.0,0.0,89,0.00,,,0.00,Wunderground v.1.15,2013-02-18 05:55:00,
2013-02-18 01:00:00,20.7,18.0,30.34,NNE,16,0.0,0.0,89,0.00,,,0.00,Wunderground v.1.15,2013-02-18 06:00:00,
2013-02-18 01:05:00,20.4,17.4,30.34,NNE,16,0.0,0.0,88,0.00,,,0.00,Wunderground v.1.15,2013-02-18 06:05:00,
2013-02-18 01:15:00,19.7,17.0,30.34,NNE,16,0.0,0.0,89,0.00,,,0.00,Wunderground v.1.15,2013-02-18 06:15:00,
2013-02-18 01:25:00,19.4,16.7,30.34,NNE,16,0.0,0.0,89,0.00,,,0.00,Wunderground v.1.15,2013-02-18 06:25:00,
2013-02-18 01:30:00,19.3,16.8,30.34,NNE,16,0.0,0.0,90,0.00,,,0.00,Wunderground v.1.15,2013-02-18 06:30:00,
2013-02-18 01:35:00,19.2,16.7,30.34,NNE,16,0.0,0.0,90,0.00,,,0.00,Wunderground v.1.15,2013-02-18 06:35:00,
2013-02-18 01:40:00,19.2,17.0,30.34,NNE,16,0.0,0.0,91,0.00,,,0.00,Wunderground v.1.15,2013-02-18 06:40:00,
2013-02-18 01:45:00,19.1,16.9,30.34,NNE,16,0.0,0.0,91,0.00,,,0.00,Wunderground v.1.15,2013-02-18 06:45:00,
2013-02-18 01:50:00,19.0,16.8,30.34,NNE,16,0.0,0.0,91,0.00,,,0.00,Wunderground v.1.15,2013-02-18 06:50:00,
2013-02-18 01:55:00,18.9,16.7,30.34,NNE,16,0.0,0.0,91,0.00,,,0.00,Wunderground v.1.15,2013-02-18 06:55:00,
2013-02-18 02:00:00,18.9,16.7,30.34,NNE,16,0.0,0.0,91,0.00,,,0.00,Wunderground v.1.15,2013-02-18 07:00:00,
2013-02-18 02:05:00,18.7,16.5,30.34,NNE,16,0.0,0.0,91,0.00,,,0.00,Wunderground v.1.15,2013-02-18 07:05:00,
2013-02-18 02:15:00,18.6,16.7,30.34,NNE,16,0.0,0.0,92,0.00,,,0.00,Wunderground v.1.15,2013-02-18 07:15:00,
2013-02-18 02:20:00,18.6,16.7,30.34,NNE,16,0.0,0.0,92,0.00,,,0.00,Wunderground v.1.15,2013-02-18 07:20:00,
2013-02-18 02:30:00,18.6,16.7,30.35,NNE,16,0.0,0.0,92,0.00,,,0.00,Wunderground v.1.15,2013-02-18 07:30:00,
2013-02-18 02:35:00,18.8,16.9,30.35,NNE,16,0.0,0.0,92,0.00,,,0.00,Wunderground v.1.15,2013-02-18 07:35:00,
2013-02-18 02:40:00,18.6,16.7,30.35,NNE,16,0.0,0.0,92,0.00,,,0.00,Wunderground v.1.15,2013-02-18 07:40:00,
2013-02-18 02:45:00,18.3,16.4,30.35,NNE,16,0.0,0.0,92,0.00,,,0.00,Wunderground v.1.15,2013-02-18 07:45:00,
2013-02-18 02:50:00,18.1,16.2,30.35,NNE,16,0.0,0.0,92,0.00,,,0.00,Wunderground v.1.15,2013-02-18 07:50:00,
2013-02-18 03:00:00,18.2,16.5,30.35,NNE,16,0.0,0.0,93,0.00,,,0.00,Wunderground v.1.15,2013-02-18 08:00:00,
2013-02-18 03:05:00,18.3,16.4,30.35,NNE,16,0.0,0.0,92,0.00,,,0.00,Wunderground v.1.15,2013-02-18 08:05:00,
2013-02-18 03:15:00,17.9,16.0,30.35,NNE,16,0.0,0.0,92,0.00,,,0.00,Wunderground v.1.15,2013-02-18 08:15:00,
2013-02-18 03:20:00,17.8,15.9,30.35,NNE,16,0.0,0.0,92,0.00,,,0.00,Wunderground v.1.15,2013-02-18 08:20:00,
2013-02-18 03:25:00,17.9,16.2,30.35,NNE,16,0.0,0.0,93,0.00,,,0.00,Wunderground v.1.15,2013-02-18 08:25:00,
2013-02-18 03:30:00,18.1,16.4,30.35,NNE,16,0.0,0.0,93,0.00,,,0.00,Wunderground v.1.15,2013-02-18 08:30:00,
2013-02-18 03:40:00,17.7,15.8,30.35,NNE,16,0.0,0.0,92,0.00,,,0.00,Wunderground v.1.15,2013-02-18 08:40:00,
2013-02-18 03:45:00,17.6,15.7,30.35,NNE,16,0.0,0.0,92,0.00,,,0.00,Wunderground v.1.15,2013-02-18 08:45:00,
2013-02-18 03:50:00,17.6,15.9,30.36,NNE,16,0.0,0.0,93,0.00,,,0.00,Wunderground v.1.15,2013-02-18 08:50:00,
2013-02-18 03:55:00,17.5,15.8,30.36,NNE,16,0.0,0.0,93,0.00,,,0.00,Wunderground v.1.15,2013-02-18 08:55:00,
2013-02-18 04:00:00,17.5,15.8,30.36,NNE,16,0.0,0.0,93,0.00,,,0.00,Wunderground v.1.15,2013-02-18 09:00:00,
2013-02-18 04:05:00,17.3,15.6,30.36,NNE,16,0.0,0.0,93,0.00,,,0.00,Wunderground v.1.15,2013-02-18 09:05:00,
2013-02-18 04:15:00,16.1,13.9,30.36,NW,322,0.0,0.0,91,0.00,,,0.00,Wunderground v.1.15,2013-02-18 09:15:00,
2013-02-18 04:20:00,16.1,13.9,30.37,NW,322,0.0,0.0,91,0.00,,,0.00,Wunderground v.1.15,2013-02-18 09:20:00,
2013-02-18 04:25:00,16.1,13.9,30.37,NW,322,0.0,0.0,91,0.00,,,0.00,Wunderground v.1.15,2013-02-18 09:25:00,
2013-02-18 04:30:00,16.1,14.2,30.37,NW,322,0.0,0.0,92,0.00,,,0.00,Wunderground v.1.15,2013-02-18 09:30:00,
2013-02-18 04:40:00,16.1,14.2,30.37,NW,322,0.0,0.0,92,0.00,,,0.00,Wunderground v.1.15,2013-02-18 09:40:00,
2013-02-18 04:45:00,16.2,14.3,30.37,NW,322,0.0,0.0,92,0.00,,,0.00,Wunderground v.1.15,2013-02-18 09:45:00,
2013-02-18 04:50:00,16.2,14.3,30.37,NW,322,0.0,0.0,92,0.00,,,0.00,Wunderground v.1.15,2013-02-18 09:50:00,
2013-02-18 04:55:00,16.1,14.2,30.37,NW,322,0.0,0.0,92,0.00,,,0.00,Wunderground v.1.15,2013-02-18 09:55:00,
2013-02-18 05:00:00,16.1,14.2,30.38,NW,322,0.0,0.0,92,0.00,,,0.00,Wunderground v.1.15,2013-02-18 10:00:00,
2013-02-18 05:05:00,16.0,14.1,30.38,NW,322,0.0,0.0,92,0.00,,,0.00,Wunderground v.1.15,2013-02-18 10:05:00,
2013-02-18 05:15:00,15.7,13.8,30.38,NW,322,0.0,0.0,92,0.00,,,0.00,Wunderground v.1.15,2013-02-18 10:15:00,
2013-02-18 05:20:00,15.5,13.6,30.38,NW,322,0.0,0.0,92,0.00,,,0.00,Wunderground v.1.15,2013-02-18 10:20:00,
2013-02-18 05:25:00,15.4,13.5,30.39,NW,322,0.0,0.0,92,0.00,,,0.00,Wunderground v.1.15,2013-02-18 10:25:00,
2013-02-18 05:30:00,15.4,13.5,30.39,NW,322,0.0,0.0,92,0.00,,,0.00,Wunderground v.1.15,2013-02-18 10:30:00,
2013-02-18 05:35:00,15.3,13.4,30.39,NW,322,0.0,0.0,92,0.00,,,0.00,Wunderground v.1.15,2013-02-18 10:35:00,
2013-02-18 05:40:00,15.2,13.3,30.39,NW,322,0.0,0.0,92,0.00,,,0.00,Wunderground v.1.15,2013-02-18 10:40:00,
2013-02-18 05:50:00,15.1,13.2,30.40,NW,322,0.0,0.0,92,0.00,,,0.00,Wunderground v.1.15,2013-02-18 10:50:00,
2013-02-18 05:55:00,15.1,13.2,30.40,NW,322,0.0,0.0,92,0.00,,,0.00,Wunderground v.1.15,2013-02-18 10:55:00,
2013-02-18 06:05:00,15.0,13.1,30.40,NW,322,0.0,0.0,92,0.00,,,0.00,Wunderground v.1.15,2013-02-18 11:05:00,
2013-02-18 06:15:00,15.0,13.1,30.41,NW,322,0.0,0.0,92,0.00,,,0.00,Wunderground v.1.15,2013-02-18 11:15:00,
2013-02-18 06:20:00,15.0,13.1,30.41,NW,322,0.0,0.0,92,0.00,,,0.00,Wunderground v.1.15,2013-02-18 11:20:00,
2013-02-18 06:25:00,15.0,13.1,30.41,NW,322,0.0,0.0,92,0.00,,,0.00,Wunderground v.1.15,2013-02-18 11:25:00,
2013-02-18 06:35:00,14.9,13.0,30.41,NW,322,0.0,0.0,92,0.00,,,0.00,Wunderground v.1.15,2013-02-18 11:35:00,
2013-02-18 06:40:00,14.9,13.0,30.41,NW,322,0.0,0.0,92,0.00,,,0.00,Wunderground v.1.15,2013-02-18 11:40:00,
2013-02-18 06:45:00,14.9,13.0,30.41,NW,322,0.0,0.0,92,0.00,,,0.00,Wunderground v.1.15,2013-02-18 11:45:00,
2013-02-18 06:50:00,14.9,13.0,30.41,NW,322,0.0,0.0,92,0.00,,,0.00,Wunderground v.1.15,2013-02-18 11:50:00,
2013-02-18 07:00:00,14.9,13.0,30.41,NW,322,0.0,0.0,92,0.00,,,0.00,Wunderground v.1.15,2013-02-18 12:00:00,
2013-02-18 07:05:00,14.8,12.9,30.41,NW,322,0.0,0.0,92,0.00,,,0.00,Wunderground v.1.15,2013-02-18 12:05:00,
2013-02-18 07:15:00,14.8,12.9,30.41,NW,322,0.0,0.0,92,0.00,,,0.00,Wunderground v.1.15,2013-02-18 12:15:00,
2013-02-18 07:20:00,14.8,12.9,30.42,NW,322,0.0,0.0,92,0.00,,,0.00,Wunderground v.1.15,2013-02-18 12:20:00,
2013-02-18 07:30:00,14.9,13.2,30.42,NW,322,0.0,0.0,93,0.00,,,0.00,Wunderground v.1.15,2013-02-18 12:30:00,
2013-02-18 07:35:00,14.9,13.2,30.42,NW,322,0.0,0.0,93,0.00,,,0.00,Wunderground v.1.15,2013-02-18 12:35:00,
2013-02-18 07:40:00,15.0,13.3,30.42,NW,322,0.0,0.0,93,0.00,,,0.00,Wunderground v.1.15,2013-02-18 12:40:00,
2013-02-18 07:45:00,15.1,13.4,30.42,NW,322,0.0,0.0,93,0.00,,,0.00,Wunderground v.1.15,2013-02-18 12:45:00,
2013-02-18 07:50:00,15.3,13.6,30.42,NW,322,0.0,0.0,93,0.00,,,0.00,Wunderground v.1.15,2013-02-18 12:50:00,
2013-02-18 07:55:00,15.4,13.7,30.42,NW,322,0.0,0.0,93,0.00,,,0.00,Wunderground v.1.15,2013-02-18 12:55:00,
2013-02-18 08:05:00,16.0,14.6,30.43,NW,322,0.0,0.0,94,0.00,,,0.00,Wunderground v.1.15,2013-02-18 13:05:00,
2013-02-18 08:15:00,17.2,15.8,30.44,NW,322,0.0,0.0,94,0.00,,,0.00,Wunderground v.1.15,2013-02-18 13:15:00,
2013-02-18 08:20:00,17.8,16.4,30.44,NW,322,0.0,0.0,94,0.00,,,0.00,Wunderground v.1.15,2013-02-18 13:20:00,
2013-02-18 08:25:00,18.3,16.9,30.44,NW,322,0.0,0.0,94,0.00,,,0.00,Wunderground v.1.15,2013-02-18 13:25:00,
2013-02-18 08:30:00,18.9,17.5,30.45,NW,322,0.0,0.0,94,0.00,,,0.00,Wunderground v.1.15,2013-02-18 13:30:00,
2013-02-18 08:40:00,20.4,19.2,30.45,NW,322,0.0,0.0,95,0.00,,,0.00,Wunderground v.1.15,2013-02-18 13:40:00,
2013-02-18 08:45:00,21.1,19.9,30.45,NW,322,0.0,0.0,95,0.00,,,0.00,Wunderground v.1.15,2013-02-18 13:45:00,
2013-02-18 08:50:00,21.8,20.6,30.45,NW,322,0.0,0.0,95,0.00,,,0.00,Wunderground v.1.15,2013-02-18 13:50:00,
2013-02-18 08:55:00,22.5,21.3,30.45,NW,322,0.0,0.0,95,0.00,,,0.00,Wunderground v.1.15,2013-02-18 13:55:00,
2013-02-18 09:00:00,23.3,21.8,30.45,NW,322,0.0,0.0,94,0.00,,,0.00,Wunderground v.1.15,2013-02-18 14:00:00,
2013-02-18 09:05:00,24.0,22.3,30.45,NW,322,0.0,0.0,93,0.00,,,0.00,Wunderground v.1.15,2013-02-18 14:05:00,
2013-02-18 09:15:00,25.7,22.1,30.45,WSW,254,0.0,0.0,86,0.00,,,0.00,Wunderground v.1.15,2013-02-18 14:15:00,
2013-02-18 09:20:00,26.8,21.8,30.45,WSW,254,0.0,0.0,81,0.00,,,0.00,Wunderground v.1.15,2013-02-18 14:20:00,
2013-02-18 09:25:00,27.5,21.8,30.45,WSW,254,0.0,0.0,79,0.00,,,0.00,Wunderground v.1.15,2013-02-18 14:25:00,
2013-02-18 09:30:00,28.4,21.5,30.45,WSW,254,0.0,0.0,75,0.00,,,0.00,Wunderground v.1.15,2013-02-18 14:30:00,
2013-02-18 09:35:00,29.0,21.4,30.45,WSW,254,0.0,0.0,73,0.00,,,0.00,Wunderground v.1.15,2013-02-18 14:35:00,
2013-02-18 09:40:00,29.6,21.0,30.45,WSW,254,0.0,0.0,70,0.00,,,0.00,Wunderground v.1.15,2013-02-18 14:40:00,
2013-02-18 09:50:00,30.9,20.9,30.44,West,261,0.0,0.0,66,0.00,,,0.00,Wunderground v.1.15,2013-02-18 14:50:00,
2013-02-18 09:55:00,31.5,21.4,30.44,West,261,0.0,0.0,66,0.00,,,0.00,Wunderground v.1.15,2013-02-18 14:55:00,
2013-02-18 10:00:00,32.0,22.6,30.45,West,261,0.0,0.0,68,0.00,,,0.00,Wunderground v.1.15,2013-02-18 15:00:00,
2013-02-18 10:05:00,32.4,22.7,30.45,West,260,0.0,0.0,67,0.00,,,0.00,Wunderground v.1.15,2013-02-18 15:05:00,
2013-02-18 10:15:00,33.5,22.6,30.45,West,260,0.0,2.0,64,0.00,,,0.00,Wunderground v.1.15,2013-02-18 15:15:00,
2013-02-18 10:20:00,34.2,22.1,30.45,South,185,1.0,1.0,61,0.00,,,0.00,Wunderground v.1.15,2013-02-18 15:20:00,
2013-02-18 10:25:00,34.4,21.5,30.45,NW,306,0.0,1.0,59,0.00,,,0.00,Wunderground v.1.15,2013-02-18 15:25:00,
2013-02-18 10:30:00,34.7,21.0,30.44,WNW,286,0.0,0.0,57,0.00,,,0.00,Wunderground v.1.15,2013-02-18 15:30:00,
2013-02-18 10:35:00,35.0,20.9,30.44,WNW,286,0.0,0.0,56,0.00,,,0.00,Wunderground v.1.15,2013-02-18 15:35:00,
2013-02-18 10:40:00,35.5,20.9,30.44,WNW,286,0.0,0.0,55,0.00,,,0.00,Wunderground v.1.15,2013-02-18 15:40:00,
2013-02-18 10:45:00,36.4,20.4,30.44,South,170,0.0,0.0,52,0.00,,,0.00,Wunderground v.1.15,2013-02-18 15:45:00,
2013-02-18 10:55:00,37.4,20.4,30.44,SSW,210,1.0,1.0,50,0.00,,,0.00,Wunderground v.1.15,2013-02-18 15:55:00,
2013-02-18 11:00:00,37.9,21.4,30.44,SSW,210,1.0,1.0,51,0.00,,,0.00,Wunderground v.1.15,2013-02-18 16:00:00,
2013-02-18 11:05:00,38.5,21.5,30.44,South,182,0.0,1.0,50,0.00,,,0.01,Wunderground v.1.15,2013-02-18 16:05:00,
2013-02-18 11:15:00,39.1,20.5,30.44,SW,224,1.0,1.0,47,0.00,,,0.01,Wunderground v.1.15,2013-02-18 16:15:00,
2013-02-18 11:20:00,39.4,21.3,30.44,SSW,202,1.0,1.0,48,0.00,,,0.01,Wunderground v.1.15,2013-02-18 16:20:00,
2013-02-18 11:30:00,40.1,21.0,30.43,South,175,1.0,1.0,46,0.00,,,0.01,Wunderground v.1.15,2013-02-18 16:30:00,
2013-02-18 11:35:00,40.4,20.7,30.43,South,178,1.0,1.0,45,0.00,,,0.01,Wunderground v.1.15,2013-02-18 16:35:00,
2013-02-18 11:40:00,40.8,21.1,30.43,South,178,1.0,1.0,45,0.00,,,0.01,Wunderground v.1.15,2013-02-18 16:40:00,
2013-02-18 11:45:00,41.3,22.1,30.43,South,181,1.0,1.0,46,0.00,,,0.01,Wunderground v.1.15,2013-02-18 16:45:00,
2013-02-18 11:50:00,41.9,21.5,30.43,WNW,288,1.0,1.0,44,0.00,,,0.01,Wunderground v.1.15,2013-02-18 16:50:00,
2013-02-18 12:00:00,42.6,21.6,30.42,SSE,164,1.0,1.0,43,0.00,,,0.02,Wunderground v.1.15,2013-02-18 17:00:00,
2013-02-18 12:05:00,43.1,20.4,30.42,SSE,164,1.0,2.0,40,0.00,,,0.02,Wunderground v.1.15,2013-02-18 17:05:00,
2013-02-18 12:15:00,44.1,20.7,30.41,SE,141,2.0,3.0,39,0.00,,,0.03,Wunderground v.1.15,2013-02-18 17:15:00,
2013-02-18 12:20:00,44.4,21.6,30.41,WNW,282,2.0,5.0,40,0.00,,,0.03,Wunderground v.1.15,2013-02-18 17:20:00,
2013-02-18 12:25:00,44.4,21.0,30.41,South,190,2.0,5.0,39,0.00,,,0.03,Wunderground v.1.15,2013-02-18 17:25:00,
2013-02-18 12:35:00,45.0,21.5,30.41,SSE,165,1.0,2.0,39,0.00,,,0.03,Wunderground v.1.15,2013-02-18 17:35:00,
2013-02-18 12:40:00,45.4,21.2,30.40,SSE,165,1.0,1.0,38,0.00,,,0.04,Wunderground v.1.15,2013-02-18 17:40:00,
2013-02-18 12:45:00,45.6,21.4,30.40,WNW,289,2.0,3.0,38,0.00,,,0.04,Wunderground v.1.15,2013-02-18 17:45:00,
2013-02-18 12:50:00,45.8,20.3,30.39,NW,325,2.0,2.0,36,0.00,,,0.04,Wunderground v.1.15,2013-02-18 17:50:00,
2013-02-18 12:55:00,45.9,21.7,30.39,East,86,2.0,2.0,38,0.00,,,0.04,Wunderground v.1.15,2013-02-18 17:55:00,
2013-02-18 13:05:00,46.6,20.4,30.38,South,188,1.0,2.0,35,0.00,,,0.04,Wunderground v.1.15,2013-02-18 18:05:00,
2013-02-18 13:15:00,46.9,20.6,30.37,South,191,1.0,1.0,35,0.00,,,0.05,Wunderground v.1.15,2013-02-18 18:15:00,
2013-02-18 13:20:00,47.1,21.5,30.37,SSE,166,1.0,2.0,36,0.00,,,0.05,Wunderground v.1.15,2013-02-18 18:20:00,
2013-02-18 13:25:00,47.4,21.7,30.37,West,277,1.0,2.0,36,0.00,,,0.05,Wunderground v.1.15,2013-02-18 18:25:00,
2013-02-18 13:30:00,47.6,21.9,30.37,SW,225,2.0,2.0,36,0.00,,,0.05,Wunderground v.1.15,2013-02-18 18:30:00,
2013-02-18 13:40:00,47.9,21.5,30.36,East,83,2.0,2.0,35,0.00,,,0.05,Wunderground v.1.15,2013-02-18 18:40:00,
2013-02-18 13:45:00,48.1,21.0,30.36,WSW,250,2.0,3.0,34,0.00,,,0.05,Wunderground v.1.15,2013-02-18 18:45:00,
2013-02-18 13:55:00,48.4,22.6,30.35,WSW,258,2.0,2.0,36,0.00,,,0.06,Wunderground v.1.15,2013-02-18 18:55:00,
2013-02-18 14:00:00,48.6,22.8,30.35,South,188,2.0,2.0,36,0.00,,,0.06,Wunderground v.1.15,2013-02-18 19:00:00,
2013-02-18 14:05:00,48.7,22.2,30.35,SE,134,2.0,2.0,35,0.00,,,0.06,Wunderground v.1.15,2013-02-18 19:05:00,
2013-02-18 14:15:00,49.2,22.7,30.35,NW,308,2.0,2.0,35,0.00,,,0.06,Wunderground v.1.15,2013-02-18 19:15:00,
2013-02-18 14:20:00,49.4,22.2,30.35,South,171,1.0,1.0,34,0.00,,,0.06,Wunderground v.1.15,2013-02-18 19:20:00,
2013-02-18 14:25:00,49.4,22.9,30.34,South,171,1.0,2.0,35,0.00,,,0.06,Wunderground v.1.15,2013-02-18 19:25:00,
2013-02-18 14:30:00,49.7,25.1,30.34,SSW,209,1.0,3.0,38,0.00,,,0.06,Wunderground v.1.15,2013-02-18 19:30:00,
2013-02-18 14:35:00,49.6,21.6,30.34,SE,146,2.0,3.0,33,0.00,,,0.06,Wunderground v.1.15,2013-02-18 19:35:00,
2013-02-18 14:40:00,49.5,24.3,30.34,South,180,2.0,2.0,37,0.00,,,0.06,Wunderground v.1.15,2013-02-18 19:40:00,
2013-02-18 14:50:00,50.0,23.4,30.34,South,171,1.0,3.0,35,0.00,,,0.06,Wunderground v.1.15,2013-02-18 19:50:00,
2013-02-18 14:55:00,50.1,23.5,30.33,SSW,205,1.0,3.0,35,0.00,,,0.06,Wunderground v.1.15,2013-02-18 19:55:00,
2013-02-18 15:00:00,50.5,23.1,30.34,West,259,1.0,1.0,34,0.00,,,0.06,Wunderground v.1.15,2013-02-18 20:00:00,
2013-02-18 15:05:00,50.7,24.7,30.33,WSW,248,1.0,1.0,36,0.00,,,0.06,Wunderground v.1.15,2013-02-18 20:05:00,
2013-02-18 15:15:00,50.7,24.0,30.33,WSW,254,2.0,2.0,35,0.00,,,0.06,Wunderground v.1.15,2013-02-18 20:15:00,
2013-02-18 15:20:00,50.9,24.9,30.33,West,271,2.0,2.0,36,0.00,,,0.06,Wunderground v.1.15,2013-02-18 20:20:00,
2013-02-18 15:25:00,50.8,24.1,30.33,SSE,161,2.0,2.0,35,0.00,,,0.06,Wunderground v.1.15,2013-02-18 20:25:00,
2013-02-18 15:30:00,50.6,23.2,30.33,SSE,163,2.0,2.0,34,0.00,,,0.06,Wunderground v.1.15,2013-02-18 20:30:00,
2013-02-18 15:35:00,50.4,24.4,30.33,SE,142,2.0,2.0,36,0.00,,,0.06,Wunderground v.1.15,2013-02-18 20:35:00,
2013-02-18 15:40:00,50.6,25.3,30.33,SE,142,1.0,1.0,37,0.00,,,0.06,Wunderground v.1.15,2013-02-18 20:40:00,
2013-02-18 15:45:00,51.0,24.3,30.33,SW,232,1.0,2.0,35,0.00,,,0.06,Wunderground v.1.15,2013-02-18 20:45:00,
2013-02-18 15:55:00,51.0,24.3,30.33,SSE,167,2.0,3.0,35,0.00,,,0.06,Wunderground v.1.15,2013-02-18 20:55:00,
2013-02-18 16:00:00,50.7,24.0,30.33,South,188,2.0,2.0,35,0.00,,,0.06,Wunderground v.1.15,2013-02-18 21:00:00,
2013-02-18 16:05:00,50.6,23.9,30.33,SSW,201,2.0,2.0,35,0.00,,,0.06,Wunderground v.1.15,2013-02-18 21:05:00,
2013-02-18 16:15:00,50.9,24.9,30.33,SSE,148,1.0,4.0,36,0.00,,,0.06,Wunderground v.1.15,2013-02-18 21:15:00,
2013-02-18 16:20:00,50.8,24.1,30.33,South,188,1.0,3.0,35,0.00,,,0.06,Wunderground v.1.15,2013-02-18 21:20:00,
2013-02-18 16:30:00,50.5,24.5,30.32,East,88,1.0,1.0,36,0.00,,,0.06,Wunderground v.1.15,2013-02-18 21:30:00,
2013-02-18 16:35:00,50.4,23.7,30.33,South,186,1.0,2.0,35,0.00,,,0.06,Wunderground v.1.15,2013-02-18 21:35:00,
2013-02-18 16:40:00,49.9,23.3,30.33,SW,216,2.0,2.0,35,0.00,,,0.06,Wunderground v.1.15,2013-02-18 21:40:00,
2013-02-18 16:45:00,49.4,24.2,30.32,NW,321,2.0,2.0,37,0.00,,,0.06,Wunderground v.1.15,2013-02-18 21:45:00,
2013-02-18 16:50:00,49.1,23.3,30.33,SSE,150,2.0,2.0,36,0.00,,,0.06,Wunderground v.1.15,2013-02-18 21:50:00,
2013-02-18 16:55:00,48.6,24.1,30.32,SSW,202,2.0,2.0,38,0.00,,,0.06,Wunderground v.1.15,2013-02-18 21:55:00,
2013-02-18 17:00:00,48.1,23.0,30.32,SSE,161,1.0,1.0,37,0.00,,,0.06,Wunderground v.1.15,2013-02-18 22:00:00,
2013-02-18 17:05:00,47.8,23.4,30.32,SSE,161,1.0,1.0,38,0.00,,,0.06,Wunderground v.1.15,2013-02-18 22:05:00,
2013-02-18 17:15:00,47.2,23.5,30.32,SSE,161,0.0,1.0,39,0.00,,,0.06,Wunderground v.1.15,2013-02-18 22:15:00,
2013-02-18 17:20:00,46.9,23.8,30.32,SSE,161,0.0,0.0,40,0.00,,,0.06,Wunderground v.1.15,2013-02-18 22:20:00,
2013-02-18 17:25:00,46.6,23.5,30.33,SSE,161,0.0,0.0,40,0.00,,,0.06,Wunderground v.1.15,2013-02-18 22:25:00,
2013-02-18 17:35:00,46.0,24.7,30.33,SSE,161,0.0,0.0,43,0.00,,,0.06,Wunderground v.1.15,2013-02-18 22:35:00,
2013-02-18 17:40:00,45.6,23.8,30.33,SSE,161,0.0,0.0,42,0.00,,,0.06,Wunderground v.1.15,2013-02-18 22:40:00,
2013-02-18 17:45:00,45.3,23.5,30.33,SSE,161,0.0,0.0,42,0.00,,,0.06,Wunderground v.1.15,2013-02-18 22:45:00,
2013-02-18 17:50:00,45.0,24.4,30.33,SSE,161,0.0,0.0,44,0.00,,,0.06,Wunderground v.1.15,2013-02-18 22:50:00,
2013-02-18 17:55:00,44.7,24.1,30.33,SSE,161,0.0,0.0,44,0.00,,,0.06,Wunderground v.1.15,2013-02-18 22:55:00,
2013-02-18 18:00:00,44.3,23.7,30.33,SSE,161,0.0,0.0,44,0.00,,,0.06,Wunderground v.1.15,2013-02-18 23:00:00,
2013-02-18 18:05:00,44.0,23.5,30.33,SSE,161,0.0,0.0,44,0.00,,,0.06,Wunderground v.1.15,2013-02-18 23:05:00,
2013-02-18 18:15:00,43.4,23.4,30.33,SSE,161,0.0,0.0,45,0.00,,,0.06,Wunderground v.1.15,2013-02-18 23:15:00,
2013-02-18 18:20:00,43.2,24.3,30.33,SSE,161,0.0,0.0,47,0.00,,,0.06,Wunderground v.1.15,2013-02-18 23:20:00,
2013-02-18 18:25:00,42.8,23.4,30.33,SSE,161,0.0,0.0,46,0.00,,,0.06,Wunderground v.1.15,2013-02-18 23:25:00,
2013-02-18 18:30:00,42.4,24.1,30.33,SSE,161,0.0,0.0,48,0.00,,,0.06,Wunderground v.1.15,2013-02-18 23:30:00,
2013-02-18 18:40:00,41.5,24.7,30.34,SSE,161,0.0,0.0,51,0.00,,,0.06,Wunderground v.1.15,2013-02-18 23:40:00,
2013-02-18 18:45:00,41.1,24.8,30.33,SSE,161,0.0,0.0,52,0.00,,,0.06,Wunderground v.1.15,2013-02-18 23:45:00,
2013-02-18 18:50:00,40.7,24.9,30.33,SSE,161,0.0,0.0,53,0.00,,,0.06,Wunderground v.1.15,2013-02-18 23:50:00,
2013-02-18 18:55:00,40.2,25.3,30.34,SSE,161,0.0,0.0,55,0.00,,,0.06,Wunderground v.1.15,2013-02-18 23:55:00,
2013-02-18 19:00:00,39.7,25.3,30.34,SSE,161,0.0,0.0,56,0.00,,,0.06,Wunderground v.1.15,2013-02-19 00:00:00,
2013-02-18 19:05:00,39.2,25.2,30.34,SSE,161,0.0,0.0,57,0.00,,,0.06,Wunderground v.1.15,2013-02-19 00:05:00,
2013-02-18 19:15:00,38.3,25.2,30.34,SSE,161,0.0,0.0,59,0.00,,,0.06,Wunderground v.1.15,2013-02-19 00:15:00,
2013-02-18 19:20:00,37.9,25.6,30.34,SSE,161,0.0,0.0,61,0.00,,,0.06,Wunderground v.1.15,2013-02-19 00:20:00,
2013-02-18 19:25:00,37.5,25.3,30.34,SSE,161,0.0,0.0,61,0.00,,,0.06,Wunderground v.1.15,2013-02-19 00:25:00,
2013-02-18 19:30:00,37.1,25.3,30.33,SSE,161,0.0,0.0,62,0.00,,,0.06,Wunderground v.1.15,2013-02-19 00:30:00,
2013-02-18 19:35:00,36.7,25.3,30.33,SSE,161,0.0,0.0,63,0.00,,,0.06,Wunderground v.1.15,2013-02-19 00:35:00,
2013-02-18 19:45:00,36.0,25.4,30.33,SSE,161,0.0,0.0,65,0.00,,,0.06,Wunderground v.1.15,2013-02-19 00:45:00,
2013-02-18 19:50:00,35.7,25.1,30.33,SSE,161,0.0,0.0,65,0.00,,,0.06,Wunderground v.1.15,2013-02-19 00:50:00,
2013-02-18 19:55:00,35.4,25.2,30.33,SSE,161,0.0,0.0,66,0.00,,,0.06,Wunderground v.1.15,2013-02-19 00:55:00,
2013-02-18 20:00:00,35.1,25.2,30.33,SSE,161,0.0,0.0,67,0.00,,,0.06,Wunderground v.1.15,2013-02-19 01:00:00,
2013-02-18 20:05:00,34.7,24.9,30.33,SSE,161,0.0,0.0,67,0.00,,,0.06,Wunderground v.1.15,2013-02-19 01:05:00,
2013-02-18 20:15:00,34.3,24.8,30.32,SSE,161,0.0,0.0,68,0.00,,,0.06,Wunderground v.1.15,2013-02-19 01:15:00,
2013-02-18 20:20:00,33.9,24.8,30.32,SSE,161,0.0,0.0,69,0.00,,,0.06,Wunderground v.1.15,2013-02-19 01:20:00,
2013-02-18 20:25:00,33.7,25.0,30.32,SSE,161,0.0,0.0,70,0.00,,,0.06,Wunderground v.1.15,2013-02-19 01:25:00,
2013-02-18 20:30:00,33.4,25.0,30.32,SSE,161,0.0,0.0,71,0.00,,,0.06,Wunderground v.1.15,2013-02-19 01:30:00,
2013-02-18 20:35:00,33.1,25.1,30.32,SSE,161,0.0,0.0,72,0.00,,,0.06,Wunderground v.1.15,2013-02-19 01:35:00,
2013-02-18 20:40:00,33.0,25.0,30.32,SSE,161,0.0,0.0,72,0.00,,,0.06,Wunderground v.1.15,2013-02-19 01:40:00,
2013-02-18 20:50:00,32.7,24.7,30.32,SSE,161,0.0,0.0,72,0.00,,,0.06,Wunderground v.1.15,2013-02-19 01:50:00,
2013-02-18 21:00:00,32.5,24.8,30.32,SSE,161,0.0,0.0,73,0.00,,,0.06,Wunderground v.1.15,2013-02-19 02:00:00,
2013-02-18 21:05:00,32.4,24.7,30.32,SSE,161,0.0,0.0,73,0.00,,,0.06,Wunderground v.1.15,2013-02-19 02:05:00,
2013-02-18 21:15:00,32.3,24.6,30.32,SSE,161,0.0,0.0,73,0.00,,,0.06,Wunderground v.1.15,2013-02-19 02:15:00,
2013-02-18 21:20:00,32.3,24.6,30.32,SSE,161,0.0,0.0,73,0.00,,,0.06,Wunderground v.1.15,2013-02-19 02:20:00,
2013-02-18 21:30:00,33.1,24.4,30.32,SSE,161,0.0,0.0,70,0.00,,,0.06,Wunderground v.1.15,2013-02-19 02:30:00,
2013-02-18 21:40:00,34.8,25.0,30.32,SSE,161,0.0,0.0,67,0.00,,,0.06,Wunderground v.1.15,2013-02-19 02:40:00,
2013-02-18 21:45:00,35.6,25.0,30.32,SE,141,0.0,0.0,65,0.00,,,0.06,Wunderground v.1.15,2013-02-19 02:45:00,
2013-02-18 21:50:00,36.2,25.2,30.32,SE,141,0.0,0.0,64,0.00,,,0.06,Wunderground v.1.15,2013-02-19 02:50:00,
2013-02-18 21:55:00,36.6,25.2,30.31,SE,141,0.0,0.0,63,0.00,,,0.06,Wunderground v.1.15,2013-02-19 02:55:00,
2013-02-18 22:06:00,37.7,25.8,30.31,SE,139,0.0,1.0,62,0.00,,,0.06,Wunderground v.1.15,2013-02-19 03:06:00,
2013-02-18 22:15:00,38.3,26.0,30.30,South,169,0.0,0.0,61,0.00,,,0.06,Wunderground v.1.15,2013-02-19 03:15:00,
2013-02-18 22:20:00,38.4,26.1,30.30,South,169,0.0,0.0,61,0.00,,,0.06,Wunderground v.1.15,2013-02-19 03:20:00,
2013-02-18 22:25:00,38.4,26.1,30.30,SSW,201,0.0,1.0,61,0.00,,,0.06,Wunderground v.1.15,2013-02-19 03:25:00,
2013-02-18 22:30:00,38.3,26.4,30.30,SSW,201,0.0,0.0,62,0.00,,,0.06,Wunderground v.1.15,2013-02-19 03:30:00,
2013-02-18 22:40:00,38.3,26.4,30.31,SSW,201,0.0,0.0,62,0.00,,,0.06,Wunderground v.1.15,2013-02-19 03:40:00,
2013-02-18 22:45:00,38.4,26.5,30.31,SE,128,0.0,3.0,62,0.00,,,0.06,Wunderground v.1.15,2013-02-19 03:45:00,
2013-02-18 22:50:00,38.7,26.4,30.30,SSE,156,0.0,0.0,61,0.00,,,0.06,Wunderground v.1.15,2013-02-19 03:50:00,
2013-02-18 22:55:00,38.7,26.8,30.30,SSE,149,0.0,0.0,62,0.00,,,0.06,Wunderground v.1.15,2013-02-19 03:55:00,
2013-02-18 23:05:00,38.9,27.0,30.30,SSE,153,0.0,1.0,62,0.00,,,0.06,Wunderground v.1.15,2013-02-19 04:05:00,
2013-02-18 23:15:00,38.8,26.9,30.30,South,179,0.0,2.0,62,0.00,,,0.06,Wunderground v.1.15,2013-02-19 04:15:00,
2013-02-18 23:20:00,38.6,27.1,30.30,South,179,0.0,0.0,63,0.00,,,0.06,Wunderground v.1.15,2013-02-19 04:20:00,
2013-02-18 23:30:00,38.6,27.1,30.30,SE,139,0.0,2.0,63,0.00,,,0.06,Wunderground v.1.15,2013-02-19 04:30:00,
2013-02-18 23:35:00,38.5,27.4,30.30,SSE,163,0.0,2.0,64,0.00,,,0.06,Wunderground v.1.15,2013-02-19 04:35:00,
2013-02-18 23:40:00,38.3,27.2,30.30,SSE,161,0.0,0.0,64,0.00,,,0.06,Wunderground v.1.15,2013-02-19 04:40:00,
2013-02-18 23:45:00,38.2,27.1,30.30,SSE,160,0.0,2.0,64,0.00,,,0.06,Wunderground v.1.15,2013-02-19 04:45:00,
2013-02-18 23:55:00,38.3,27.6,30.30,SE,145,0.0,0.0,65,0.00,,,0.06,Wunderground v.1.15,2013-02-19 04:55:00,